{"data":{"norad_id":32276,"intl_designator":"2007-052B","name":"COSMOS 2432 (719)","alt_names":[],"object_type":"PAYLOAD","status":"ACTIVE","operator":null,"country":"CIS","launch_date":"2007-10-26","launch_site_code":"TYMSC","launch_vehicle":null,"mission":null,"orbit_class":"UNKNOWN","rcs_meters":3.1623,"size_class":null,"mass_kg":null,"dimensions":null,"purposes":["nav"],"wikipedia_slug":null,"has_3d_model":false,"image_url":null,"decayed_at":null,"tle_current":{"epoch":"2026-09-18T08:41:46.232160Z","epoch_age_seconds":199085,"freshness":"STALE","line1":"1 32276U 07052B   26261.36234065 -.00000042  00000+0  00000+0 0  9995","line2":"2 32276  65.5348 312.9235 0008701 307.5470  45.4378  2.13103328147062","mean_motion":2.13103328,"eccentricity":0.0008701,"inclination_deg":65.5348,"raan_deg":312.9235,"arg_perigee_deg":307.547,"mean_anomaly_deg":45.4378,"bstar":0,"rev_number":14706,"period_min":675.72853672187,"perigee_km":19107.587015018,"apogee_km":19151.975894713,"semimajor_km":25507.918454865,"source":"CELESTRAK","updated_at":"2026-09-19T09:01:46.186163Z"}}}